Flag for Germany Weather past 2 weeks in Gifhorn, Lower Saxony, Germany

Now
68 °F

Clear.


Feels Like: 68 °F
Forecast: 59 / 68 °F
Wind: 8 mph from Southwest

Location: Braunschweig

Current Time: Jul 8, 2015 at 12:25:05 AM

Latest Report: Jul 7, 2015 at 11:20 PM


Visibility: 10 mi

Pressure: 29.65 "Hg

Humidity: 94%

Dew point: 66 °F

Location of GifhornLocation

Historic Weather in Gifhorn — Graph

°F

Gifhorn temperature yesterday

Maximum temperature yesterday: 88 °F (at 3:20 PM)
Minimum temperature yesterday: 59 °F (at 6:50 AM)
Average temperature yesterday: 77 °F

Past Weeks' High & Low Weather Summary

 TemperatureHumidityPressure
High99 °F (Jul 4, 4:50 PM)100% (Jun 22, 9:20 PM)30.27 "Hg (Jun 22, 9:20 PM)
Low50 °F (Jun 23, 6:50 AM)27% (Jul 4, 4:50 PM)29.65 "Hg (Jul 7, 9:50 PM)
Average71 °F59%30.09 "Hg
* Reported Jun 22 9:20 PM — Jul 7 9:50 PM, Gifhorn, Weather by CustomWeather, © 2015

Note: Actual official high and low records may vary slightly from our data, if they occured in-between our weather recording intervals... More about our weather records

Advertising

Gifhorn weather history for previous 24 hours

 ConditionsComfort  
Time TempWeatherWind HumidityBarometerVisibility
9:50 PM
Tue, Jul 7
68 °FSunny.5 mph100%29.65 "Hg10 mi
9:20 PM68 °FSunny.8 mph100%29.68 "Hg10 mi
8:50 PM68 °FSunny.6 mph100%29.68 "Hg10 mi
8:20 PM70 °FLight rain. Clear.9 mph94%29.71 "HgN/A
7:50 PM72 °FSunny.8 mph83%29.74 "Hg10 mi
7:20 PM75 °FThunderstorms. Overcast.5 mph74%29.71 "HgN/A
7:04 PM79 °FThunderstorms. Overcast.3 mph51%29.71 "HgN/A
6:50 PM81 °FLight rain. Partly sunny.5 mph51%29.68 "HgN/A
6:20 PM84 °FSunny.5 mph43%29.68 "Hg10 mi
5:50 PM86 °FSunny.7 mph33%29.71 "Hg10 mi
5:20 PM86 °FSunny.7 mph31%29.74 "Hg10 mi
4:50 PM86 °FSunny.10 mph29%29.74 "Hg10 mi
4:20 PM86 °FSunny.13 mph29%29.77 "Hg10 mi
3:50 PM86 °FSunny.12 mph31%29.80 "Hg10 mi
3:20 PM88 °FSunny.12 mph27%29.80 "Hg10 mi
2:50 PM86 °FSunny.12 mph31%29.80 "Hg10 mi
2:20 PM86 °FPassing clouds.13 mph33%29.83 "HgN/A
1:50 PM84 °FPassing clouds.10 mph37%29.83 "HgN/A
1:20 PM82 °FPassing clouds.8 mph40%29.86 "HgN/A
12:50 PM82 °FPassing clouds.8 mph37%29.86 "HgN/A
12:20 PM82 °FPassing clouds.6 mph35%29.89 "HgN/A
11:50 AM81 °FSunny.6 mph32%29.89 "Hg10 mi
11:20 AM79 °FPassing clouds.6 mph39%29.92 "HgN/A
10:50 AM79 °FPassing clouds.8 mph42%29.92 "HgN/A
10:20 AM77 °FPassing clouds.8 mph47%29.92 "HgN/A
9:50 AM73 °FSunny.8 mph53%29.95 "Hg10 mi
9:20 AM73 °FPassing clouds.8 mph53%29.95 "HgN/A
8:50 AM72 °FPassing clouds.7 mph65%29.98 "HgN/A
8:20 AM68 °FPassing clouds.6 mph69%29.98 "HgN/A
7:50 AM64 °FSunny.5 mph83%30.01 "Hg10 mi
7:20 AM61 °FSunny.3 mph94%30.01 "Hg10 mi
6:50 AM59 °FSunny.5 mph100%30.01 "Hg10 mi
Weather by CustomWeather, © 2015

See weather overviewHow to use our weather pages